TimeEDT,TemperatureF,Dew PointF,Humidity,Sea Level PressureIn,VisibilityMPH,Wind Direction,Wind SpeedMPH,Gust SpeedMPH,PrecipitationIn,Events,Conditions,WindDirDegrees,DateUTC
12:15 AM,66.2,57.2,73,30.04,10.0,SSW,6.9,-,N/A,,Clear,210,2013-05-09 04:15:00
12:35 AM,64.4,57.2,77,30.03,10.0,SW,5.8,-,N/A,,Clear,220,2013-05-09 04:35:00
12:55 AM,64.4,57.2,77,30.03,10.0,SW,6.9,-,N/A,,Clear,220,2013-05-09 04:55:00
1:15 AM,64.4,57.2,77,30.03,10.0,SW,5.8,-,N/A,,Clear,220,2013-05-09 05:15:00
1:35 AM,64.4,57.2,77,30.02,10.0,SW,4.6,-,N/A,,Clear,220,2013-05-09 05:35:00
1:55 AM,64.4,57.2,77,30.02,10.0,SW,5.8,-,N/A,,Clear,230,2013-05-09 05:55:00
2:15 AM,64.4,57.2,77,30.01,10.0,SW,5.8,-,N/A,,Clear,230,2013-05-09 06:15:00
2:35 AM,62.6,57.2,82,30.01,10.0,WSW,6.9,-,N/A,,Clear,240,2013-05-09 06:35:00
2:55 AM,62.6,57.2,82,30.01,10.0,WSW,6.9,-,N/A,,Clear,240,2013-05-09 06:55:00
3:15 AM,62.6,57.2,82,30.00,10.0,WSW,6.9,-,N/A,,Clear,240,2013-05-09 07:15:00
3:35 AM,62.6,57.2,82,30.00,10.0,WSW,8.1,-,N/A,,Clear,240,2013-05-09 07:35:00
3:55 AM,62.6,57.2,82,30.00,10.0,WSW,5.8,-,N/A,,Clear,240,2013-05-09 07:55:00
4:15 AM,62.6,55.4,77,30.00,10.0,WSW,8.1,-,N/A,,Clear,240,2013-05-09 08:15:00
4:35 AM,62.6,55.4,77,30.00,10.0,WSW,10.4,-,N/A,,Clear,240,2013-05-09 08:35:00
4:55 AM,62.6,55.4,77,30.00,10.0,WSW,9.2,-,N/A,,Clear,250,2013-05-09 08:55:00
5:15 AM,62.6,55.4,77,30.01,10.0,WSW,9.2,-,N/A,,Clear,250,2013-05-09 09:15:00
5:35 AM,62.6,55.4,77,30.01,10.0,WSW,9.2,-,N/A,,Clear,250,2013-05-09 09:35:00
5:50 AM,62.6,55.4,77,30.01,10.0,WSW,9.2,-,N/A,,Clear,250,2013-05-09 09:50:00
6:45 AM,60.8,55.4,82,30.03,10.0,WSW,9.2,-,N/A,,Clear,250,2013-05-09 10:45:00
7:45 AM,64.4,57.2,77,30.05,10.0,West,6.9,-,N/A,,Clear,260,2013-05-09 11:45:00
8:45 AM,68.0,57.2,68,30.07,10.0,West,10.4,-,N/A,,Clear,270,2013-05-09 12:45:00
9:45 AM,71.6,57.2,60,30.08,10.0,NW,8.1,-,N/A,,Clear,320,2013-05-09 13:45:00
10:50 AM,75.2,57.2,53,30.08,10.0,NW,8.1,-,N/A,,Clear,320,2013-05-09 14:50:00
11:51 AM,80.6,57.2,45,30.12,10.0,SW,5.8,-,N/A,,Clear,230,2013-05-09 15:51:00
12:50 PM,77.0,60.8,57,30.08,10.0,South,13.8,-,N/A,,Scattered Clouds,170,2013-05-09 16:50:00
1:50 PM,77.0,62.6,61,30.07,10.0,South,11.5,-,N/A,,Scattered Clouds,170,2013-05-09 17:50:00
2:45 PM,77.0,62.6,61,30.05,10.0,SSW,15.0,-,N/A,,Scattered Clouds,200,2013-05-09 18:45:00
3:45 PM,75.2,62.6,65,30.05,10.0,South,16.1,-,N/A,,Scattered Clouds,190,2013-05-09 19:45:00
4:45 PM,75.2,62.6,65,30.04,10.0,SSW,17.3,-,N/A,,Partly Cloudy,200,2013-05-09 20:45:00
6:45 PM,75.2,62.6,65,30.04,10.0,SSW,11.5,-,N/A,,Clear,200,2013-05-09 22:45:00
7:45 PM,73.4,62.6,69,30.05,10.0,South,11.5,-,N/A,,Clear,190,2013-05-09 23:45:00
8:45 PM,71.6,62.6,73,30.07,10.0,SSE,8.1,-,N/A,,Clear,160,2013-05-10 00:45:00
9:45 PM,69.8,62.6,78,30.09,10.0,South,6.9,-,N/A,,Clear,180,2013-05-10 01:45:00
11:15 PM,69.8,60.8,73,30.10,10.0,SSW,6.9,-,N/A,,Clear,200,2013-05-10 03:15:00
11:35 PM,68.0,60.8,78,30.10,10.0,SW,6.9,-,N/A,,Clear,220,2013-05-10 03:35:00
11:55 PM,68.0,59.0,73,30.10,10.0,SW,6.9,-,N/A,,Clear,220,2013-05-10 03:55:00